Tracking 22879 objects as of 22-Apr-2021
HD Live streaming from Space Station
objects crossing your sky now

STARLINK-2205

Track STARLINK-2205 now!
10-day predictions
STARLINK-2205 is classified as:


NORAD ID: 47419
Int'l Code: 2021-006G
Perigee: 523.8 km
Apogee: 536.5 km
Inclination: 97.5 °
Period: 95.1 minutes
Semi major axis: 6901 km
RCS: Unknown
Launch date: January 24, 2021
Source: United States (US)
Launch site: AIR FORCE EASTERN TEST RANGE (AFETR)
aabbcc
Your satellite tracking list
Your tracking list is empty




NASA's NSSDC Master Catalog

Two Line Element Set (TLE):
1 47419U 21006G   21111.42881326  .00000861  00000-0  50588-4 0  9999
2 47419  97.4984 173.8976 0009201 336.4746  23.6063 15.14315325 13446
Source of the keplerian elements: AFSPC